SGDC (42692 NORAD) Tracking and Keplerian Element Data

This shows tracking and keplerian element data for the satellite.

Feedback or suggestion? Click here.




ElementValue
Catalog42692
NameSGDC
Epoch Orbit566
Epoch Day319.05761337
Epoch Year2018
RAAN81.9902
Inclination0.0347
Eccentricity0.0002117
Argument of Perigee139.8696
Mean Anonmoly138.1527
Mean Motion1.00271056
Decay Rate-2.48E-06
L11 42692U 17023B 18319.05761337 -.00000248 00000-0 00000+0 0 9994
L22 42692 0.0347 81.9902 0002117 139.8696 138.1527 1.00271056 5667

Live tracking and technical data element details for SGDC (NORAD 42692). SGDC can be tracked NOW for your location showing map with azimuth and elevation plus other details from your city location.

Track the satellite on the map from your city or location and see movement details for azimuth, elevation, latitude, longitude, range, height, and movement on the map or in text.







IsCatalogInMostPopularTable: catalog: 42692, numindb: 127
Update: records affected: 1



GetName: 42692 SGDC

Hit Count: updated at: Fri, 16 Nov 2018 12:34:55 GMT